Overview Statistics Trail Chart Weather Telemetry Raw packets
 

This is the latest recevied weather packets stored in our database for station/object DL1EEM-L4. If no packets are shown the sender has not sent any weather packets the latest 10 day(s).

<< 1 2 3 4 5 6 >>
Time Temp. Humidity Pressure Rain* Wind** Luminosity Snow
1777974357 13.33° C 53% 1009.9 hPa - - - -
1777973457 13.33° C 55% 1010 hPa - - - -
1777972557 12.78° C 55% 1010.1 hPa - - - -
1777971657 12.22° C 56% 1010.1 hPa - - - -
1777970757 12.22° C 57% 1010.1 hPa - - - -
1777969857 11.67° C 57% 1010.3 hPa - - - -
1777968957 11.67° C 58% 1010.3 hPa - - - -
1777968057 11.67° C 58% 1010.3 hPa - - - -
1777967157 11.67° C 59% 1010.1 hPa - - - -
1777966256 11.67° C 60% 1010.2 hPa - - - -
1777965360 11.11° C 59% 1010.1 hPa - - - -
1777964456 11.11° C 62% 1010.1 hPa - - - -
1777963570 11.11° C 64% 1010.2 hPa - - - -
1777962660 11.11° C 65% 1010.2 hPa - - - -
1777961757 10.56° C 66% 1010.2 hPa - - - -
1777959945 11.11° C 65% 1010.1 hPa - - - -
1777958144 10.56° C 65% 1010 hPa - - - -
1777957243 10° C 68% 1010.1 hPa - - - -
1777913158 18.33° C 55% 1011.3 hPa - - - -
1777912258 18.33° C 54% 1011.2 hPa - - - -
1777911358 18.89° C 54% 1011.2 hPa - - - -
1777910458 19.44° C 53% 1011.2 hPa - - - -
1777909558 18.89° C 54% 1011.1 hPa - - - -
1777908657 19.44° C 53% 1011.1 hPa - - - -
1777907757 20° C 52% 1011.1 hPa - - - -

* Rain since midnight (hover to see other rain measurements)
** Current wind speed in m/s (hover to see current wind gust speed)